Location: La Coruña
(43.3623°N, 8.4115°W)
Time: 01:14:14
(UTC+01:00)

STARLINK-1111 - Pass Details

Date: 25 January 2020
Orbit: 529 x 531 km, 53.0° (Epoch: 17 February)

Event Time Altitude Azimuth Distance (km) Brightness Sun altitude
Rises 20:16:26 0° 303° (WNW) 2,645 7.9 -18.3°
Reaches altitude 10° 20:18:59 10° 318° (NW) 1,751 6.6 -18.8°
Enters shadow 20:22:13 24° 13° (NNE) 1,113 5.0 -19.3°
